GFSSGP_700_rhum_204.txt.gz
RH
14 16 13 12 15 12 8 13 20 19 24 27 46 46 37 29 25 26 19 25 45 34 24 28 23 19 19 20 20 20 18 17 17 18 18 18 17 17 16 16 15 17 21 23 20 20 21 22 23
13 13 15 17 16 12 12 22 22 17 20 38 50 50 42 36 32 27 26 24 39 43 38 31 29 22 21 22 22 22 21 19 18 18 18 18 18 18 18 17 16 14 16 22 27 25 22 22 23
13 11 13 17 19 12 12 21 18 16 19 37 42 40 36 28 26 31 31 41 49 47 47 36 30 28 24 24 24 24 25 23 20 19 19 19 19 19 18 17 16 14 13 16 21 29 30 28 27
15 13 13 16 17 13 11 18 20 16 19 32 31 29 28 23 18 28 49 50 44 45 42 49 45 39 29 27 26 27 27 27 23 20 20 20 20 20 19 18 15 12 11 13 16 24 30 28 29
21 17 16 17 15 11 14 23 20 18 17 28 27 21 26 19 20 26 26 38 42 40 47 38 49 60 57 40 29 28 28 29 30 20 20 20 21 20 19 19 16 12 9 8 11 21 26 27 28
26 20 21 13 14 12 20 25 28 23 20 21 18 20 29 20 20 22 22 26 41 45 46 50 44 48 60 64 37 30 29 30 37 22 21 21 21 21 20 19 17 13 10 8 7 8 8 8 12
21 23 23 20 18 12 20 28 29 26 25 22 20 19 20 19 22 25 28 33 32 35 44 42 50 50 42 47 44 33 30 29 42 26 21 22 22 22 21 19 19 16 12 10 8 7 6 5 6
25 33 28 28 20 12 20 27 29 29 29 24 21 20 19 19 20 21 31 37 38 37 41 50 46 52 48 41 39 36 32 30 44 31 22 23 23 23 22 20 20 19 15 13 11 10 8 6 4
35 38 34 30 30 19 21 25 29 31 34 31 32 22 21 21 19 18 22 23 26 29 33 51 57 46 48 46 40 36 33 34 46 38 24 23 24 24 24 22 21 20 19 16 12 12 12 10 8
38 34 35 30 32 29 22 27 27 29 32 34 35 32 25 21 21 20 20 22 30 34 33 28 34 54 47 52 48 37 34 38 49 43 25 24 25 25 25 24 22 20 21 19 15 13 13 13 12
44 35 35 34 39 35 23 28 32 37 34 34 32 32 32 31 26 23 22 23 29 36 35 27 25 25 41 45 40 47 37 43 47 46 28 23 25 26 26 26 25 23 21 22 20 17 14 14 15
35 31 33 30 34 36 28 25 28 33 36 35 33 33 33 32 32 30 28 27 27 28 26 24 26 26 32 39 36 45 42 44 44 45 36 24 24 26 27 28 27 25 24 22 22 22 20 16 15
35 32 32 30 29 28 26 24 27 28 31 34 35 34 33 32 32 30 30 30 31 30 31 30 30 28 27 31 37 42 44 40 44 49 46 28 23 25 26 28 28 27 26 23 22 22 21 18 16
31 30 29 28 26 25 26 27 31 27 33 33 33 34 34 34 33 32 30 28 29 29 28 30 31 29 30 28 26 37 40 40 44 44 51 40 23 23 25 26 27 27 26 24 23 22 21 20 16
33 31 30 29 26 24 23 22 25 29 30 31 32 31 28 24 27 29 29 30 29 28 29 30 31 30 28 29 28 26 38 42 40 41 48 52 39 24 23 24 25 26 24 23 22 23 22 20 16
36 34 29 25 25 24 23 20 22 28 29 28 30 29 29 28 28 28 30 29 29 27 27 29 31 30 29 29 31 30 26 29 32 39 39 42 54 41 24 23 22 22 23 22 21 21 20 19 17
33 32 28 27 27 28 31 24 25 28 30 29 30 29 30 30 28 28 28 28 28 28 29 32 34 33 32 31 32 34 33 33 35 39 36 36 38 56 50 28 21 20 21 21 20 20 18 16 15
32 30 28 29 32 30 32 29 28 31 30 29 30 29 29 31 31 30 28 28 29 28 28 28 28 30 30 31 31 32 31 32 35 36 38 43 44 42 50 58 31 21 19 19 19 20 21 18 15
36 39 37 28 33 36 29 29 25 25 28 29 28 28 28 28 31 32 30 29 29 30 30 30 30 30 30 30 30 32 32 33 32 32 33 37 49 45 48 53 63 42 22 20 18 17 18 18 18
42 43 39 31 33 37 34 34 26 23 24 24 23 23 24 27 28 29 30 31 31 30 30 29 30 31 31 31 31 31 33 33 34 37 38 38 36 42 50 52 46 60 49 22 20 19 18 17 17
45 45 43 41 37 36 36 30 26 24 22 22 24 24 26 27 27 28 28 29 29 29 28 29 30 31 32 33 33 32 32 32 34 36 37 41 49 47 42 48 60 65 71 51 22 19 20 19 18
58 52 52 51 45 45 39 43 34 29 29 29 30 28 28 28 26 26 26 25 25 25 26 27 26 26 28 31 32 32 32 33 34 36 47 59 70 70 68 67 58 76 81 77 44 18 18 18 18
67 63 56 45 45 46 42 39 34 33 32 28 28 30 29 24 21 20 18 17 17 19 23 25 28 28 27 27 29 32 35 36 36 37 40 57 65 75 72 68 69 70 74 86 79 34 19 18 18
46 41 39 43 44 45 40 36 33 31 30 30 29 28 28 27 27 28 28 28 28 28 26 25 22 19 16 13 15 23 27 29 34 43 44 51 65 75 79 86 86 84 89 86 92 76 24 21 20
42 40 44 47 51 52 34 38 35 34 33 33 32 30 29 26 25 30 32 32 31 30 28 25 22 18 13 11 10 10 11 12 23 34 42 47 59 70 81 88 94 95 97 100 97 87 52 29 27
49 43 42 56 59 50 41 43 34 38 38 36 34 40 38 35 33 30 33 33 33 31 28 25 20 12 11 12 12 10 12 22 23 28 33 46 55 68 89 99 99 100 100 100 99 85 94 84 43
68 53 45 41 67 67 43 45 45 49 50 53 49 46 45 43 42 39 37 37 33 31 26 17 11 11 14 34 46 38 38 39 38 41 63 68 77 73 92 100 100 100 89 99 93 96 92 96 91
57 52 53 52 77 65 57 56 45 55 52 56 55 53 51 50 47 45 42 38 34 26 18 8 7 7 12 17 14 20 26 24 28 29 43 56 71 93 99 86 86 99 98 97 99 99 99 100 99
57 57 53 53 64 81 82 51 49 51 57 59 58 52 50 48 44 37 33 26 15 6 2 2 9 22 21 19 15 16 11 12 18 28 36 45 88 100 95 88 92 99 97 98 98 98 98 98 99
58 58 53 54 83 82 77 66 59 49 56 56 52 44 34 26 21 15 6 3 2 2 2 2 10 35 32 30 31 25 30 29 21 42 47 58 99 100 98 100 97 91 96 96 100 98 98 98 98

GFSSGP_700_rhum_210.txt.gz
RH
11 11 12 11 23 17 8 17 23 24 24 29 40 42 36 41 52 40 31 21 26 21 24 34 22 16 15 16 17 18 17 17 18 18 18 18 18 19 19 19 18 18 19 20 22 21 20 21 22
13 12 12 12 18 10 14 24 24 25 21 36 43 42 43 61 32 25 21 15 33 40 45 36 24 18 17 18 18 19 20 19 18 18 18 19 19 20 20 19 18 17 17 16 17 23 25 23 22
15 14 20 21 16 12 17 22 25 19 22 37 43 43 46 57 30 22 16 18 23 43 49 35 26 21 19 20 21 22 22 23 21 19 19 19 19 20 20 20 19 17 14 12 12 16 22 28 29
19 18 15 20 14 19 20 24 30 29 23 35 42 59 36 32 22 18 18 17 20 35 45 46 32 25 20 22 24 25 25 26 26 22 20 20 20 21 21 20 19 17 14 12 11 11 16 25 31
24 26 26 20 16 19 22 26 25 26 21 29 33 49 39 19 23 19 20 19 18 26 38 48 46 28 22 24 26 28 28 28 28 29 23 21 21 21 22 21 20 18 14 13 10 9 11 18 23
41 33 24 19 16 19 23 27 27 24 24 26 34 46 32 22 25 27 24 23 20 22 31 41 50 39 26 26 28 31 31 31 31 35 31 22 22 22 22 22 21 18 15 14 11 9 8 10 10
39 35 25 22 25 22 26 26 28 24 32 39 23 44 26 21 23 29 28 26 29 30 30 37 47 54 53 46 47 49 46 36 33 36 41 26 22 23 23 23 21 19 18 16 12 10 8 6 6
36 38 33 30 26 19 24 22 28 33 32 26 22 44 40 22 22 20 21 24 26 26 40 39 43 53 64 64 63 70 74 60 36 37 44 43 23 23 23 24 23 21 19 18 15 13 11 9 7
26 37 29 30 31 26 24 32 28 28 26 28 25 26 25 23 21 21 21 21 21 23 27 34 49 57 58 67 72 73 77 75 44 38 41 53 34 23 24 24 24 22 20 19 18 15 13 12 11
38 35 30 37 34 34 38 36 38 30 32 32 32 30 27 25 24 22 21 22 23 24 24 32 28 36 56 63 58 60 64 68 53 41 40 51 55 24 24 25 25 24 22 20 20 18 15 13 13
43 37 34 40 31 36 40 36 35 30 30 32 35 32 32 27 25 26 24 28 29 25 25 28 29 25 26 31 57 63 62 63 56 44 42 42 60 46 23 25 26 26 24 23 22 21 19 17 14
39 40 38 38 30 27 33 36 24 23 28 29 26 28 30 30 29 29 30 31 31 29 31 27 26 26 27 27 31 41 48 60 65 55 48 44 53 63 34 23 25 26 26 25 24 23 21 21 19
35 40 34 31 27 28 29 28 27 28 19 20 20 22 24 27 30 29 29 29 30 30 30 28 30 30 30 28 27 25 30 36 44 64 59 51 51 66 66 30 23 26 27 27 26 26 24 22 22
41 34 32 31 29 28 28 29 30 29 23 22 22 25 26 27 29 29 29 30 31 31 29 32 32 32 32 30 30 30 28 27 33 50 62 58 54 66 75 64 31 23 25 27 27 27 27 25 22
40 38 40 32 33 32 28 26 25 33 24 22 21 22 25 25 25 27 26 27 30 32 31 30 34 34 35 34 33 33 32 31 28 39 52 58 57 60 71 74 70 35 23 24 25 26 27 27 26
40 42 36 32 30 31 27 23 32 24 32 36 26 26 27 28 28 26 28 28 27 31 31 31 30 33 35 35 37 36 35 34 35 32 45 54 54 56 62 66 64 69 41 22 21 22 25 25 25
45 35 33 33 30 32 28 26 30 29 28 38 33 33 32 30 30 30 30 30 29 29 30 31 30 29 29 30 33 38 38 35 37 38 38 38 40 47 54 55 52 53 64 56 30 21 20 22 23
36 38 39 34 35 29 33 32 32 32 35 36 32 32 32 31 31 30 31 31 30 30 29 29 28 28 28 29 29 31 31 31 33 35 38 45 48 47 48 55 50 48 52 56 61 47 22 19 19
44 40 36 34 39 40 37 35 33 34 36 29 24 26 30 31 30 30 29 30 31 31 29 28 28 28 28 28 29 30 30 31 32 33 34 39 45 53 50 53 58 54 55 54 54 66 50 20 16
48 45 41 41 45 45 42 41 38 38 39 37 27 24 25 28 27 27 26 27 28 29 30 30 30 30 30 29 29 29 30 31 32 32 32 34 40 46 48 56 54 57 64 62 58 68 74 58 28
48 47 45 44 46 50 50 45 36 38 31 29 30 28 25 26 27 26 26 26 27 28 29 29 30 31 31 31 31 30 30 31 32 34 36 38 40 40 45 52 53 56 59 60 61 71 79 81 66
53 52 51 50 52 46 48 34 33 38 36 34 32 30 28 31 33 33 31 30 29 29 28 28 29 29 30 30 30 30 30 30 31 33 34 35 36 38 40 49 57 54 56 65 61 62 75 86 76
55 56 58 58 59 56 50 50 35 37 56 38 35 34 34 35 35 34 31 30 30 30 29 28 27 26 26 27 28 28 27 25 24 21 21 23 30 38 43 39 42 59 56 58 65 65 66 75 86
60 62 62 61 56 49 46 42 34 33 44 50 36 34 34 35 35 35 34 33 30 26 26 27 28 27 27 27 27 26 26 25 24 23 22 20 18 16 16 20 41 51 64 65 81 78 78 78 80
66 62 53 47 45 42 38 38 35 37 40 41 35 34 35 36 38 38 35 32 32 33 32 32 32 32 31 29 27 23 20 18 16 18 19 16 14 12 11 8 8 14 48 70 79 87 80 86 81
66 59 57 75 46 36 39 38 35 41 38 35 35 39 39 41 39 38 36 36 36 36 35 35 34 33 31 29 27 25 22 17 12 8 7 8 6 5 4 4 6 8 11 19 65 77 81 95 92
82 75 67 84 78 60 41 42 44 40 37 37 36 41 46 43 41 40 39 38 35 34 32 32 34 34 32 30 26 19 12 7 5 3 3 2 2 3 3 8 9 7 11 11 20 94 100 99 99
85 84 95 99 76 64 40 41 37 56 39 43 43 44 40 39 40 40 38 36 36 38 41 40 34 29 22 16 9 5 3 2 2 2 2 4 7 5 3 4 20 24 24 26 35 95 100 100 99
81 92 91 82 72 66 53 37 47 65 48 43 46 42 42 42 41 42 44 44 45 44 38 32 23 15 6 3 3 2 2 2 2 2 6 17 21 22 19 15 9 8 15 21 35 85 97 100 99
64 74 87 86 94 78 69 61 47 59 62 52 47 46 46 48 50 50 49 42 39 34 21 10 5 3 2 2 3 3 6 8 6 7 31 36 33 30 30 31 30 21 30 48 46 93 100 100 98

GFSSGP_700_rhum_216.txt.gz
RH
9 8 9 10 28 21 16 10 12 14 13 15 22 20 25 36 48 45 36 24 20 13 28 31 23 15 14 15 15 17 18 19 20 19 18 19 20 20 19 18 18 17 18 19 21 22 22 21 22
11 8 11 29 26 19 12 9 12 14 18 21 20 14 26 54 50 40 27 14 23 28 22 24 27 20 16 15 16 18 19 18 19 19 19 19 20 21 20 19 18 17 16 16 18 20 23 24 24
12 10 26 26 18 15 12 12 16 19 20 22 35 25 39 56 68 25 16 14 15 26 33 40 44 30 19 16 17 19 21 21 21 20 19 19 20 21 21 20 19 18 16 14 15 16 19 22 26
14 28 20 20 17 12 15 18 22 22 23 25 41 42 73 63 55 14 14 14 13 13 14 30 46 38 22 18 19 21 22 24 25 24 21 20 20 21 22 22 20 18 17 14 12 12 13 17 20
26 35 28 22 15 12 15 20 25 26 25 25 36 47 65 46 18 15 15 14 14 13 15 30 42 32 25 21 21 22 24 26 28 29 28 23 21 21 22 22 22 19 17 16 14 12 10 11 13
40 33 26 20 17 14 14 19 26 24 20 22 34 41 66 41 17 16 16 16 15 16 16 22 33 46 37 26 22 24 26 28 30 31 33 32 25 22 22 22 23 20 19 18 16 14 12 10 9
40 35 28 20 17 14 13 18 26 25 24 32 38 44 59 50 17 17 16 17 18 19 20 27 34 46 48 35 24 24 27 30 32 33 34 35 37 28 22 23 23 23 20 19 18 18 16 14 12
38 33 29 24 21 18 16 20 24 25 22 25 28 47 55 69 19 17 18 18 20 21 21 21 28 36 47 52 39 30 30 34 38 42 37 35 37 42 29 23 24 24 22 20 19 19 19 17 15
38 35 30 25 20 20 19 19 21 24 25 26 35 52 82 65 19 17 18 19 20 21 23 21 23 27 44 51 57 59 57 60 62 64 61 41 36 40 48 29 23 24 24 22 21 20 20 19 17
38 35 29 24 23 22 21 22 20 25 24 25 28 37 58 40 19 18 18 20 20 21 24 24 24 24 30 48 53 58 62 66 70 75 80 66 41 40 40 53 28 24 25 25 23 22 21 21 20
35 34 31 28 26 27 25 24 23 24 26 22 24 31 39 31 21 20 20 21 21 22 26 26 26 27 26 22 37 55 59 57 59 65 69 76 54 39 40 44 60 28 24 25 25 24 23 22 22
34 33 33 31 30 29 28 26 26 26 24 23 23 30 39 48 30 39 67 74 75 50 29 28 28 26 25 22 21 25 25 45 55 54 58 71 61 44 44 42 52 62 31 24 26 26 25 25 24
33 33 31 31 30 30 30 30 28 26 25 24 25 28 31 35 47 52 56 60 71 83 71 35 28 29 27 25 25 24 23 23 32 42 44 55 61 54 49 46 44 50 57 36 24 26 26 26 26
34 32 33 33 32 30 30 30 29 27 25 24 24 28 28 30 33 40 50 56 67 80 87 70 30 29 30 28 30 29 29 29 28 29 34 45 60 65 65 61 51 50 58 58 54 25 24 26 26
40 37 35 34 33 31 29 29 28 27 25 25 24 26 28 30 35 39 45 52 61 77 95 98 53 30 32 29 33 32 30 34 37 35 34 38 51 66 72 70 70 61 59 68 69 66 38 24 24
44 40 38 34 31 30 30 29 27 25 26 27 30 29 34 34 35 36 30 46 65 73 90 92 61 33 30 34 33 33 35 35 34 33 33 34 35 35 56 73 77 76 70 63 67 69 67 62 33
44 41 36 32 30 27 28 29 24 23 25 27 30 33 34 41 31 22 21 28 40 49 80 100 73 27 32 31 36 39 41 40 36 36 35 34 35 38 37 48 66 71 72 69 61 69 68 66 70
38 37 36 34 28 26 26 28 26 27 28 29 29 35 35 43 52 22 22 23 26 25 33 32 26 28 32 31 31 34 36 40 40 38 39 40 37 36 40 44 55 59 59 50 45 48 57 58 56
37 34 32 28 28 27 28 28 26 25 29 30 30 30 35 44 51 24 22 26 26 28 30 31 30 28 28 31 32 34 34 36 37 39 40 39 40 40 39 41 47 56 56 52 50 46 52 54 60
42 41 37 33 30 28 28 29 29 27 26 26 28 29 34 44 45 24 21 24 27 29 30 31 30 30 29 30 30 31 31 31 32 37 43 44 43 39 40 41 46 50 57 57 56 55 49 52 62
40 40 39 38 33 31 30 29 31 32 30 27 26 27 30 39 44 33 21 20 25 29 30 29 30 31 32 30 29 30 30 31 32 33 39 43 46 49 49 46 44 43 47 51 58 59 55 58 59
38 38 37 38 36 35 31 33 32 32 30 30 29 28 32 40 46 38 29 24 22 24 26 27 28 29 31 32 32 33 34 34 34 34 34 34 35 35 34 36 36 39 45 52 60 66 69 63 66
40 37 36 37 37 37 36 35 32 28 28 32 30 33 36 43 40 37 35 30 27 25 26 28 29 31 32 33 33 33 32 32 31 30 30 28 27 26 26 25 23 22 21 20 20 28 56 85 87
40 40 41 43 42 45 45 40 38 33 30 31 32 34 38 44 36 35 35 32 29 32 33 33 32 31 31 31 32 31 28 26 25 25 25 25 25 24 24 23 22 20 18 18 20 17 23 83 79
43 42 46 52 50 46 38 36 37 36 35 31 37 39 40 41 42 37 35 36 31 32 34 34 32 33 33 32 28 28 28 28 27 28 29 29 29 28 26 25 25 22 16 13 10 9 10 13 63
46 44 53 60 52 44 43 46 38 35 34 32 36 40 47 46 37 36 37 36 32 35 36 35 35 35 32 30 32 30 30 32 33 33 32 32 30 26 21 18 18 14 10 7 5 4 4 5 6
52 48 47 48 51 58 56 51 47 41 38 39 42 50 47 43 41 38 36 36 37 38 38 38 38 36 35 35 36 37 37 36 34 31 26 22 18 14 9 6 4 3 2 2 2 2 2 3 7
48 54 55 61 92 76 56 46 44 42 41 44 42 43 42 38 38 38 36 37 39 40 41 41 41 40 39 38 37 37 37 35 28 23 14 8 6 4 3 2 2 2 2 2 2 2 3 4 4
52 50 53 63 75 68 60 43 39 44 44 52 58 52 43 42 40 40 40 42 40 44 46 43 41 40 40 41 40 37 36 29 19 10 5 4 3 2 2 3 3 4 4 7 11 16 16 16 15
54 58 58 88 94 81 67 57 58 52 48 52 67 66 57 47 43 44 44 44 45 46 45 44 43 43 43 41 40 35 24 9 5 3 3 3 3 4 6 10 8 10 17 29 34 34 35 33 29

GFSSGP_700_rhum_222.txt.gz
RH
10 10 10 10 13 13 14 9 13 17 20 18 18 14 12 13 16 32 31 30 21 34 55 33 25 18 15 17 18 20 23 23 22 20 20 20 18 18 17 16 16 15 15 16 17 19 20 21 22
11 10 10 15 15 22 18 22 16 22 22 20 21 16 12 18 34 32 33 31 32 25 45 39 30 17 14 15 16 18 19 21 22 22 22 21 21 19 18 16 16 15 15 14 14 15 17 21 23
12 11 12 17 22 22 21 18 22 20 18 18 18 23 17 27 32 28 24 26 30 18 32 41 31 16 14 15 16 17 18 19 20 22 22 22 21 22 20 18 16 16 16 15 14 13 12 15 21
13 12 13 18 15 18 20 21 21 19 18 16 27 39 29 36 45 37 25 30 30 28 31 33 25 17 16 16 16 17 19 20 21 21 22 23 23 22 22 20 18 16 16 16 15 14 12 11 14
14 16 17 16 14 24 25 24 22 18 15 14 34 43 40 43 37 26 32 18 19 26 37 38 30 21 19 18 17 18 20 22 23 23 23 23 24 22 22 22 21 17 17 17 17 16 14 12 11
16 22 23 16 17 24 25 24 23 18 15 15 19 37 40 34 26 24 35 19 18 16 16 24 42 45 36 23 19 20 21 24 25 26 27 26 26 26 23 22 22 20 18 17 18 19 18 16 14
18 32 24 27 24 20 27 26 21 15 19 26 29 42 42 32 28 26 20 26 20 17 17 18 27 40 41 29 23 22 24 25 26 28 30 30 29 29 28 23 23 23 20 18 18 19 20 20 19
26 41 32 31 26 24 29 26 20 16 22 29 35 36 37 40 29 25 18 21 20 19 19 18 19 31 41 41 32 25 26 26 27 30 33 37 35 31 32 32 24 24 23 21 19 19 19 20 21
39 46 31 28 30 28 28 27 22 24 25 31 27 28 32 34 29 29 17 18 18 19 19 20 20 21 32 45 47 33 26 26 29 37 47 54 55 43 32 34 36 25 24 24 22 20 20 20 20
44 36 26 26 33 29 30 33 27 22 23 25 29 35 35 28 28 32 23 18 19 19 20 21 21 20 23 31 47 51 48 46 49 58 63 63 61 63 49 33 35 41 27 24 24 23 22 21 21
40 36 29 26 33 32 33 34 31 27 24 25 24 25 28 28 25 33 36 24 21 21 20 23 24 23 23 25 32 45 52 60 64 66 66 62 61 58 64 42 35 36 45 31 24 25 25 23 23
39 40 40 32 34 35 34 34 32 30 27 26 25 25 29 32 29 30 32 28 21 20 21 22 26 26 26 26 27 30 40 56 59 62 60 59 62 57 62 60 42 39 37 47 41 25 25 26 26
41 39 37 37 36 34 33 32 32 29 28 27 27 26 34 39 40 33 31 28 24 26 53 63 62 47 31 29 30 26 24 26 34 43 54 60 57 57 61 62 55 46 44 41 47 54 32 25 26
39 39 37 36 33 35 34 34 32 31 27 28 27 26 26 42 40 41 37 35 29 40 66 66 65 67 65 41 32 30 25 26 27 28 28 30 37 43 46 54 59 58 55 51 46 47 58 50 35
42 36 36 26 34 34 34 33 33 31 30 28 27 26 26 34 47 45 49 53 47 51 54 57 70 64 56 54 35 34 32 28 29 30 31 30 28 29 30 36 42 46 50 50 54 60 56 62 70
43 43 33 22 32 30 34 34 28 29 30 25 25 27 26 31 49 54 49 47 53 52 52 58 68 69 60 56 48 35 34 33 30 32 32 32 32 32 31 30 30 32 31 33 41 44 45 55 59
45 40 36 26 25 28 32 34 29 26 28 28 27 26 26 26 25 28 29 29 30 37 54 53 48 50 57 58 37 37 35 36 33 33 34 37 38 37 34 35 36 35 35 35 32 32 34 39 48
33 42 36 31 22 33 37 37 28 27 28 29 28 28 28 26 24 24 24 25 28 33 47 55 55 53 58 60 44 37 40 35 32 32 33 36 39 39 37 38 40 43 42 40 40 39 38 36 39
33 43 39 33 23 37 40 40 36 31 27 28 28 26 27 28 26 26 26 26 34 47 51 46 48 50 53 48 42 47 46 44 37 34 34 36 38 40 39 40 39 44 46 52 49 50 49 46 46
46 46 47 36 25 33 35 38 36 32 28 28 27 25 27 28 27 26 28 29 30 38 40 49 49 44 45 36 34 42 42 38 40 36 36 37 38 45 42 52 49 45 46 51 62 60 57 57 54
50 50 49 47 25 28 36 42 35 33 29 29 27 28 27 27 26 27 28 28 27 30 28 26 28 32 32 31 36 40 40 39 34 36 38 38 39 40 42 59 58 61 65 62 63 67 72 74 80
57 46 44 43 50 53 27 46 35 32 34 30 28 27 29 29 30 30 29 34 30 30 28 23 22 25 28 30 32 34 36 34 35 37 38 40 40 40 41 43 42 38 34 29 26 24 26 25 27
44 48 44 54 56 54 49 48 44 36 29 34 30 29 29 30 31 31 30 31 36 31 30 29 32 26 27 30 32 34 38 40 40 41 41 39 36 32 30 29 28 27 27 27 27 26 25 24 24
50 54 50 54 58 58 51 46 42 41 38 31 32 31 30 30 30 31 32 31 36 35 32 32 33 36 34 28 31 36 39 41 40 36 33 32 31 29 27 28 29 28 29 30 30 29 28 27 26
62 65 66 73 65 62 45 44 41 41 38 33 33 33 33 34 35 33 30 30 32 33 32 33 34 36 34 32 35 37 40 37 35 33 32 31 31 32 31 30 31 32 32 28 24 21 18 17 14
62 63 62 72 69 58 48 49 45 42 40 33 38 35 33 35 36 38 34 31 31 32 34 38 37 34 34 38 39 39 38 37 36 34 33 34 33 32 34 36 34 29 25 24 21 18 14 10 7
50 60 44 55 58 64 52 49 48 45 42 39 39 38 38 36 35 36 36 37 35 35 33 39 41 36 37 41 42 41 40 38 36 35 34 34 35 37 36 33 29 24 18 13 10 6 4 4 3
51 44 54 56 74 76 57 52 45 46 40 42 40 38 37 38 39 39 41 39 37 40 43 42 41 37 40 44 43 41 40 38 38 38 40 39 39 37 33 28 23 19 14 8 5 4 4 4 5
56 55 48 48 54 69 70 54 48 46 46 46 43 44 42 42 39 42 42 42 44 44 50 55 42 37 40 42 42 41 41 41 41 41 41 40 39 35 31 25 18 11 8 5 4 4 7 12 16
54 53 49 48 57 58 59 57 50 45 44 43 41 41 41 41 40 44 46 46 44 47 54 52 45 40 42 43 43 43 42 42 44 42 41 41 36 31 21 12 8 6 5 4 4 6 12 21 24

GFSSGP_700_rhum_225.txt.gz
RH
11 9 9 10 11 8 7 15 21 14 21 20 12 13 20 22 29 28 39 36 37 32 22 19 16 17 18 20 22 23 23 23 22 21 20 18 17 17 16 15 15 15 15 15 15 16 17 17 18
11 10 10 13 14 13 21 22 21 20 22 21 17 15 13 12 14 25 44 28 32 50 36 19 18 16 17 18 19 20 22 23 23 23 22 21 20 19 17 16 15 15 15 14 14 14 14 14 15
12 12 12 20 22 11 23 21 23 23 23 20 17 15 13 13 19 31 35 29 31 29 52 39 19 18 16 17 17 18 19 21 22 23 22 22 22 22 19 17 16 15 15 15 14 13 13 12 12
12 13 14 16 18 20 19 26 23 23 22 20 19 19 17 16 25 26 25 28 25 23 35 52 23 21 16 16 16 17 18 19 20 21 22 22 22 22 22 20 17 16 16 16 16 15 13 12 12
14 14 17 16 15 10 23 28 24 24 23 23 16 15 18 14 26 30 26 28 36 28 33 40 34 22 16 17 17 17 18 19 20 21 22 22 23 22 22 22 20 17 16 17 17 17 16 15 15
16 15 19 17 17 14 24 27 24 24 23 20 21 18 29 21 28 34 31 23 40 26 28 30 35 20 17 18 18 19 20 21 22 23 24 24 24 23 22 23 23 20 18 17 18 19 19 19 19
16 16 16 17 23 20 27 26 24 25 23 22 21 22 39 33 29 28 29 28 19 27 20 30 37 33 27 21 21 21 22 23 24 26 27 28 28 27 25 24 23 23 21 18 18 19 19 20 20
17 19 18 16 21 23 30 29 26 27 26 25 31 31 35 37 34 27 35 30 15 15 16 23 26 38 42 32 23 22 24 24 25 27 29 32 34 32 32 28 24 24 24 21 19 19 19 19 19
17 22 19 17 20 22 30 31 28 30 25 28 29 32 38 32 33 27 28 20 15 16 16 17 18 22 31 41 35 30 27 25 26 27 29 36 43 42 34 35 34 25 24 24 23 21 20 20 20
24 20 22 20 25 30 30 32 33 34 32 25 26 31 34 31 28 28 25 16 16 16 16 17 19 19 22 29 43 47 43 33 26 28 36 47 55 58 50 36 37 40 28 24 25 24 22 22 22
26 22 24 21 27 33 31 31 35 35 30 27 26 26 25 25 25 28 30 19 17 19 18 19 21 22 22 24 27 35 45 50 43 39 50 61 68 68 68 56 40 40 44 40 26 25 25 25 23
26 23 29 26 29 35 34 33 34 34 32 29 27 26 26 25 26 28 26 29 19 18 19 20 22 25 26 26 25 26 31 49 59 63 66 72 73 71 75 78 60 42 40 42 51 42 26 25 26
36 30 32 36 32 38 37 34 33 33 32 31 29 27 25 25 29 34 32 31 32 20 20 21 22 26 29 29 30 29 28 26 43 56 62 64 65 64 64 71 69 60 46 42 42 44 54 48 28
34 31 25 28 32 32 38 36 35 31 32 32 30 29 28 28 29 38 34 30 36 25 22 31 37 56 50 52 49 33 32 28 25 26 29 30 31 38 45 50 54 60 59 54 51 46 43 46 58
36 31 23 20 28 29 35 36 37 32 32 31 31 29 29 27 39 42 34 31 27 26 27 36 40 58 59 61 60 51 36 37 28 29 29 29 28 28 28 30 36 49 51 53 58 61 65 60 55
38 39 28 20 24 26 32 32 24 28 33 32 30 30 29 29 28 45 41 38 38 31 32 38 51 56 59 56 56 59 56 44 40 33 32 31 32 33 34 34 33 34 32 32 32 32 38 51 65
49 45 29 21 22 28 31 30 20 27 32 33 31 31 29 30 27 41 42 32 31 33 42 53 46 51 58 52 54 50 41 48 45 41 34 34 35 36 38 38 38 38 38 38 37 36 37 36 37
39 41 31 28 22 27 27 31 25 27 34 33 30 29 31 29 28 28 31 28 31 29 29 43 48 54 60 53 56 55 46 38 39 39 40 38 40 40 40 40 40 41 42 43 44 42 41 38 39
44 46 42 34 30 30 26 30 29 32 36 37 34 30 30 30 29 29 28 26 26 26 27 27 35 37 55 54 50 48 46 46 44 40 41 36 36 38 41 41 44 47 44 44 42 44 46 46 48
49 50 52 42 35 34 31 31 27 26 32 34 33 29 29 29 30 29 29 28 26 26 28 29 38 47 52 56 55 52 55 38 43 44 38 40 39 47 50 50 55 54 51 60 61 62 66 74 69
56 56 50 48 39 36 43 40 27 21 23 33 31 28 28 27 26 26 27 27 27 28 30 32 36 41 51 54 54 52 46 34 42 46 46 39 46 44 62 59 56 60 61 61 71 74 74 73 72
52 50 54 50 56 55 38 46 36 29 22 25 33 28 28 27 26 27 26 27 27 28 31 30 32 32 30 38 34 32 33 35 41 48 42 36 38 43 43 42 45 47 44 41 36 30 28 26 26
43 46 51 52 56 58 50 62 57 42 26 22 32 30 30 29 28 28 28 28 30 31 32 34 37 36 27 25 26 29 33 36 38 38 38 38 38 39 40 39 39 34 30 28 27 28 29 29 30
58 70 57 60 60 72 60 57 46 38 28 15 21 33 31 30 29 30 30 30 31 32 33 34 35 35 36 36 35 34 30 34 36 36 38 39 40 37 33 31 30 29 29 29 30 32 32 31 28
72 73 70 79 79 73 44 44 34 32 34 28 19 22 31 32 31 30 30 30 30 30 34 34 34 37 38 41 40 38 33 34 35 39 38 35 33 32 32 30 30 30 31 32 33 32 32 28 23
77 76 64 70 61 53 51 45 34 32 33 30 30 33 30 31 33 32 31 33 33 34 33 31 35 36 39 42 39 37 34 36 41 39 36 35 34 34 34 34 34 34 34 34 34 31 27 21 15
65 78 56 56 60 67 44 41 37 36 38 37 35 35 32 37 36 34 35 36 37 36 34 38 39 39 41 42 38 37 40 44 39 38 37 36 36 37 37 37 37 37 36 34 30 25 20 15 13
61 55 75 73 88 67 53 54 41 40 38 37 37 36 36 37 38 36 34 36 34 35 38 42 44 48 44 45 42 38 40 40 40 39 38 38 39 39 40 40 39 37 33 29 23 18 14 10 6
73 68 67 75 72 61 55 42 39 40 41 37 33 34 33 38 38 38 37 36 37 41 46 50 53 50 56 60 48 40 42 42 42 41 40 41 41 42 41 40 36 32 29 23 16 10 8 6 5
63 63 66 68 62 62 53 44 41 42 45 45 42 38 35 40 40 40 39 42 41 50 58 57 56 59 68 70 58 43 44 44 43 42 43 43 44 43 41 37 32 26 17 13 10 6 4 4 5

GFSSGP_700_rhum_228.txt.gz
RH
10 10 9 8 8 7 20 24 24 23 21 20 12 9 12 16 29 42 29 27 26 22 18 17 18 20 20 21 22 22 21 21 21 20 19 17 16 16 15 15 14 15 15 14 14 15 15 15 16
12 10 9 10 9 10 22 23 25 25 22 22 19 14 17 18 25 27 18 25 28 22 16 16 17 18 19 20 21 22 22 21 22 22 22 21 19 17 17 16 15 15 15 15 14 14 13 13 14
12 11 10 10 10 8 22 22 24 25 25 22 20 18 15 12 12 16 23 36 35 30 17 16 16 17 18 19 20 20 21 21 22 22 23 23 22 21 19 17 16 16 16 16 15 14 14 13 13
13 12 12 13 11 11 16 25 25 23 23 21 20 19 16 15 16 27 40 38 35 44 29 17 16 16 17 18 18 19 20 20 21 21 22 22 23 23 22 20 17 16 16 16 17 16 16 15 14
15 13 14 12 11 10 14 29 28 23 23 21 19 17 16 17 22 32 36 35 32 33 44 53 22 16 17 17 17 18 18 19 19 20 21 21 22 23 23 23 20 18 17 17 18 18 19 19 18
16 15 17 14 12 11 23 31 27 24 25 22 20 18 18 21 28 30 30 29 36 25 28 45 47 18 17 17 17 18 18 19 20 21 21 22 23 23 23 23 23 21 18 18 18 18 19 19 20
18 17 16 16 15 13 28 31 27 24 25 23 21 24 24 37 36 36 40 33 28 29 30 48 38 28 19 18 18 19 20 21 22 23 24 25 26 25 24 23 23 24 22 19 19 19 19 19 20
17 19 19 17 17 16 30 32 31 27 25 26 27 30 29 31 33 37 33 30 27 24 29 42 37 34 27 19 21 22 22 23 24 25 27 29 30 31 30 27 24 24 24 23 20 19 20 20 20
18 19 18 17 17 16 30 30 33 28 26 27 28 38 37 35 39 33 31 33 25 18 22 18 24 31 35 28 30 26 23 24 25 26 27 30 32 36 36 35 32 25 24 25 24 22 21 20 20
22 19 19 20 21 22 24 31 32 29 28 30 29 28 30 26 30 34 31 30 23 16 16 16 18 20 34 36 36 36 30 28 27 28 29 30 34 43 48 42 39 41 34 25 25 25 25 23 22
24 19 22 22 24 27 22 30 33 33 30 29 28 29 33 28 28 26 28 22 19 19 18 18 19 21 21 22 25 36 46 45 35 30 30 32 43 55 61 61 51 42 42 46 43 28 26 26 25
28 22 25 24 26 28 26 27 31 34 32 32 28 27 25 27 25 26 27 29 24 19 19 20 20 21 22 24 24 27 34 45 50 51 54 58 63 67 69 72 73 67 47 42 43 50 52 40 27
34 25 30 32 33 27 32 26 33 31 31 34 33 29 26 24 26 26 31 30 30 24 20 20 21 21 24 26 28 29 29 29 36 40 44 52 59 64 66 69 71 72 69 57 46 43 44 44 54
35 31 32 33 32 30 30 33 38 27 30 33 33 32 29 26 25 34 32 33 32 31 27 22 22 22 23 28 34 37 33 32 30 27 29 31 35 48 55 60 60 63 69 66 60 54 53 51 48
36 36 29 27 23 27 33 33 30 25 31 33 34 33 32 30 26 27 35 36 33 30 33 23 22 22 30 38 42 52 59 39 34 30 28 29 29 30 31 34 40 52 58 57 56 59 63 64 66
41 47 36 21 21 22 27 28 22 25 30 31 31 32 33 31 30 26 33 36 31 28 29 26 23 25 32 51 58 52 52 53 44 38 33 31 31 31 32 33 34 38 40 39 37 38 37 39 43
46 49 37 26 29 31 32 29 18 23 25 27 31 33 34 34 32 30 30 42 32 30 28 28 28 30 41 53 58 58 56 44 39 44 39 37 35 34 34 36 37 37 37 38 38 40 40 40 41
47 41 34 34 32 33 35 32 23 21 25 31 26 27 31 33 33 31 28 36 41 32 32 34 38 50 50 50 52 54 48 54 44 36 43 44 40 39 38 40 42 43 42 42 45 43 44 44 46
45 39 43 39 33 37 40 40 34 26 22 31 34 33 32 35 30 31 29 30 47 32 30 26 31 44 43 44 48 49 46 51 50 44 42 47 48 48 48 48 46 42 43 50 58 52 53 49 61
45 47 45 45 37 43 41 38 37 34 24 24 29 34 34 34 32 29 30 28 27 26 25 26 33 32 35 46 48 54 56 53 51 48 38 44 41 41 40 41 51 58 56 59 55 52 46 56 58
40 47 49 48 46 44 49 40 36 27 28 24 20 27 33 31 30 29 28 28 27 26 24 26 28 30 37 42 46 50 56 53 44 44 42 40 48 50 44 49 46 59 55 56 56 63 60 50 58
44 44 52 59 66 62 45 48 42 39 31 23 24 19 26 32 29 28 28 27 27 25 26 27 28 31 36 43 48 49 50 50 52 50 34 40 46 44 37 39 46 69 56 83 90 42 33 30 29
50 56 58 56 68 68 53 67 52 47 41 33 24 20 18 30 28 27 26 24 25 26 27 28 30 33 32 35 36 39 43 40 36 29 40 40 40 36 36 38 44 45 42 39 33 30 29 27 27
69 67 71 72 78 81 58 54 39 40 38 28 20 20 19 22 29 29 28 26 26 28 28 29 31 32 32 33 35 33 32 34 37 56 43 45 41 41 40 41 42 37 32 31 30 29 29 30 31
80 80 73 82 85 70 47 47 41 33 34 31 22 22 18 18 30 30 29 27 28 29 30 30 32 32 33 34 36 38 38 39 48 63 50 46 47 45 42 36 32 32 31 31 32 32 33 34 34
73 79 71 77 64 54 52 46 35 31 29 25 23 23 20 17 28 31 30 30 29 30 31 32 31 32 34 36 35 37 40 44 41 43 46 49 48 37 33 33 34 33 33 34 35 36 36 35 32
78 90 73 60 64 68 45 41 41 38 36 32 28 25 23 23 19 26 32 31 30 31 31 31 32 35 37 44 41 42 44 39 36 38 46 47 37 35 36 36 36 36 37 38 38 36 34 30 25
80 68 86 87 96 85 49 48 40 35 32 27 25 26 26 27 29 30 28 33 33 32 32 37 39 44 48 47 46 45 43 42 40 40 47 40 37 38 38 39 40 40 40 40 37 33 29 22 16
92 76 85 94 89 83 62 45 39 36 35 33 26 26 32 33 29 31 32 31 34 35 38 38 38 45 55 53 50 50 58 56 47 43 41 39 40 40 41 42 42 43 42 39 34 28 19 14 10
69 72 85 90 86 88 68 60 41 36 30 34 33 31 32 31 37 35 35 38 37 38 38 39 41 49 63 56 56 62 60 52 46 42 41 41 42 43 44 45 44 44 41 35 27 20 13 7 5